Delta Virtual Airport Information Service

Tel Aviv Ben Gurion International Airport

ICAO: LLBG Country: Israel
Latitude: 32.0114 Longitude: 34.8867
Latest Arrival : DAC2904 (LTBJ-LLBG) Latest Departure : AIZ281 (A) (LLBG-LKPR)


WX CaptureLIVE
Data provided by noaa.gov | Fetched at 03:09:00

METAR : LLBG 300750Z 20007KT 170V230 9999 SCT050 20/14 Q1015 NOSIG

TAF : LLBG 300750Z 20007KT 170V230 9999 SCT050 20/14 Q1015 NOSIG


Runway Data for LLBG
Data provided by openaviationdata.com

Runway ID Mag Var Hdg Length Elevation Surface ILS Freq ILS Id ILS Slope
3 3 25° 5848 ft 135 ft Asphalt -- -- --
8 3 76° 11949 ft 135 ft Asphalt -- -- --
12 3 118° 10134 ft 135 ft Asphalt 110.3 BG 3
21 3 205° 5848 ft 135 ft Asphalt -- -- --
26 3 256° 11949 ft 135 ft Asphalt 108.7 BA 3
30 3 298° 10134 ft 135 ft Asphalt -- -- --

Tel Aviv Ben Gurion International Airport, Israel
Use only for reference purposes



Not for navigational purposes.